Location: Bathsheba
(13.2167°N, 59.5167°W)
Time: 22:46:46
(UTC+00:00)

Iridium 4 Rocket - Pass Details

Date: 18 September 2020
Orbit: 585 x 904 km, 86.9° (Epoch: 20 October)

Event Time Altitude Azimuth Distance (km) Brightness Sun altitude
Rises 22:31:10 0° 179° (S) 2,884 6.4 -9.2°
Reaches altitude 10° 22:33:18 10° 179° (S) 2,012 5.6 -9.7°
Maximum altitude 22:37:44 89° 98° (E) 674 3.2 -10.8°
Drops below altitude 10° 22:42:35 10° 360° (N) 2,196 5.9 -12.0°
Sets 22:45:00 0° 0° (N) 3,170 6.8 -12.6°
